SXS47B EDDH-LTAI

Flight info

Callsign SXS47B
Flight time N/A
Altitude 35000
Route AMLUH2C AMLUH M852 DENIX DCT ZUCKA DCT EKPEK DCT OMELO DCT VLM DCT NAVTI DCT BEGLA DCT KEROP DCT ESIRI DCT OBLAK DCT NISVA DCT OTKOK/N0455F370 N131 RODIP DCT BELGI UN131 KULAR UT39 NESIL
Aircraft B738/M-SDE2E3FGHIRWXY/LB1

Departure

Time 2026-02-19 09:39
Airport Hamburg Helmut Schmidt Airport (EDDH)

Arrival

Time N/A
Airport Antalya International Airport (LTAI)
Time Latitude Longitude Altitude Speed Heading
2026-02-19 09:02 53.63106 10.00391 63 ft 0 kts 85°
2026-02-19 09:25 53.63106 10.00375 62 ft 2 kts 85°
2026-02-19 09:25 53.63105 10.00350 62 ft 2 kts 85°
2026-02-19 09:25 53.63103 10.00324 62 ft 2 kts 95°
2026-02-19 09:25 53.63107 10.00300 62 ft 2 kts 115°
2026-02-19 09:26 53.63116 10.00279 62 ft 2 kts 134°
2026-02-19 09:26 53.63127 10.00264 62 ft 2 kts 153°
2026-02-19 09:26 53.63141 10.00256 62 ft 1 kts 171°
2026-02-19 09:26 53.63147 10.00255 62 ft 1 kts 178°
2026-02-19 09:27 53.63150 10.00255 62 ft 0 kts 176°
2026-02-19 09:27 53.63149 10.00255 62 ft 0 kts 176°
2026-02-19 09:29 53.63150 10.00255 62 ft 0 kts 176°
2026-02-19 09:29 53.63149 10.00255 62 ft 0 kts 176°
2026-02-19 09:29 53.63147 10.00255 62 ft 1 kts 176°
2026-02-19 09:30 53.63120 10.00258 62 ft 7 kts 175°
2026-02-19 09:30 53.63052 10.00243 62 ft 9 kts 210°
2026-02-19 09:30 53.62999 10.00186 62 ft 8 kts 212°
2026-02-19 09:30 53.62953 10.00138 62 ft 6 kts 212°
2026-02-19 09:31 53.62915 10.00098 62 ft 7 kts 212°
2026-02-19 09:31 53.62864 10.00031 62 ft 11 kts 217°
2026-02-19 09:31 53.62816 9.99973 62 ft 1 kts 213°
2026-02-19 09:31 53.62813 9.99970 62 ft 0 kts 213°
2026-02-19 09:33 53.62800 9.99957 62 ft 5 kts 210°
2026-02-19 09:33 53.62745 9.99905 62 ft 12 kts 208°
2026-02-19 09:33 53.62654 9.99809 62 ft 18 kts 231°
2026-02-19 09:33 53.62616 9.99579 62 ft 22 kts 258°
2026-02-19 09:34 53.62586 9.99314 62 ft 21 kts 259°
2026-02-19 09:34 53.62560 9.99078 62 ft 19 kts 259°
2026-02-19 09:34 53.62536 9.98863 62 ft 19 kts 260°
2026-02-19 09:34 53.62509 9.98625 62 ft 22 kts 259°
2026-02-19 09:35 53.62478 9.98358 62 ft 24 kts 259°
2026-02-19 09:35 53.62429 9.98098 62 ft 22 kts 239°
2026-02-19 09:35 53.62332 9.97894 62 ft 23 kts 230°
2026-02-19 09:35 53.62226 9.97681 62 ft 24 kts 230°
2026-02-19 09:36 53.62127 9.97479 62 ft 21 kts 231°
2026-02-19 09:36 53.61955 9.97132 62 ft 18 kts 231°
2026-02-19 09:36 53.61865 9.96950 62 ft 21 kts 230°
2026-02-19 09:37 53.61766 9.96750 62 ft 22 kts 230°
2026-02-19 09:37 53.61678 9.96562 62 ft 18 kts 244°
2026-02-19 09:37 53.61714 9.96419 62 ft 12 kts 348°
2026-02-19 09:37 53.61797 9.96428 62 ft 11 kts
2026-02-19 09:38 53.61868 9.96464 62 ft 10 kts 39°
2026-02-19 09:38 53.61881 9.96487 62 ft 0 kts 50°
2026-02-19 09:38 53.61897 9.96520 62 ft 17 kts 51°
2026-02-19 09:38 53.62161 9.97055 63 ft 101 kts 51°
2026-02-19 09:39 53.62759 9.98266 133 ft 161 kts 52°
2026-02-19 09:39 53.63482 9.99723 940 ft 166 kts 52°
2026-02-19 09:39 53.64213 10.01165 1789 ft 169 kts 52°
2026-02-19 09:39 53.65005 10.02734 2284 ft 189 kts 53°
2026-02-19 09:40 53.65910 10.04577 2732 ft 216 kts 53°
2026-02-19 09:40 53.67808 10.08490 4724 ft 222 kts 54°
2026-02-19 09:40 53.68778 10.10497 5659 ft 226 kts 55°
2026-02-19 09:41 53.69619 10.12691 6525 ft 228 kts 70°
2026-02-19 09:41 53.70001 10.15255 7381 ft 227 kts 92°
2026-02-19 09:41 53.69749 10.17807 8201 ft 225 kts 117°
2026-02-19 09:41 53.68825 10.20014 8681 ft 240 kts 142°
2026-02-19 09:42 53.67371 10.21524 9158 ft 257 kts 160°
2026-02-19 09:42 53.65669 10.22503 9888 ft 265 kts 166°
2026-02-19 09:42 53.63861 10.23358 10466 ft 281 kts 167°
2026-02-19 09:42 53.61901 10.24300 10710 ft 307 kts 166°
2026-02-19 09:43 53.59795 10.25344 11077 ft 327 kts 166°
2026-02-19 09:43 53.57602 10.26435 11732 ft 336 kts 166°
2026-02-19 09:43 53.55357 10.27535 12538 ft 340 kts 167°
2026-02-19 09:43 53.53085 10.28627 13326 ft 344 kts 168°
2026-02-19 09:44 53.50760 10.29714 14130 ft 348 kts 168°
2026-02-19 09:44 53.46061 10.31791 15668 ft 356 kts 170°
2026-02-19 09:44 53.43664 10.32793 16406 ft 360 kts 171°
2026-02-19 09:45 53.41256 10.33772 17114 ft 364 kts 171°
2026-02-19 09:45 53.38784 10.34755 17811 ft 368 kts 172°
2026-02-19 09:45 53.36292 10.35732 18483 ft 372 kts 172°
2026-02-19 09:45 53.33751 10.36727 19138 ft 377 kts 172°
2026-02-19 09:46 53.31205 10.37766 19771 ft 382 kts 172°
2026-02-19 09:46 53.28625 10.38839 20380 ft 386 kts 172°
2026-02-19 09:46 53.26025 10.39944 20974 ft 391 kts 172°
2026-02-19 09:46 53.23388 10.41086 21543 ft 396 kts 172°
2026-02-19 09:47 53.20699 10.42261 22106 ft 400 kts 172°
2026-02-19 09:47 53.18031 10.43434 22634 ft 405 kts 172°
2026-02-19 09:47 53.15292 10.44641 23161 ft 409 kts 172°
2026-02-19 09:47 53.12533 10.45846 23662 ft 412 kts 173°
2026-02-19 09:48 53.09757 10.46807 24116 ft 415 kts 176°
2026-02-19 09:48 53.04039 10.48530 24944 ft 426 kts 178°
2026-02-19 09:48 53.01082 10.49422 25347 ft 432 kts 178°
2026-02-19 09:49 52.98116 10.50323 25725 ft 438 kts 178°
2026-02-19 09:49 52.95129 10.51235 26101 ft 443 kts 178°
2026-02-19 09:49 52.92113 10.52161 26548 ft 447 kts 178°
2026-02-19 09:49 52.89041 10.53105 26960 ft 451 kts 179°
2026-02-19 09:50 52.85974 10.54046 27367 ft 455 kts 179°
2026-02-19 09:50 52.82862 10.55002 27764 ft 459 kts 179°
2026-02-19 09:50 52.79714 10.55968 28156 ft 462 kts 179°
2026-02-19 09:50 52.76556 10.56938 28613 ft 464 kts 179°
2026-02-19 09:51 52.73386 10.57912 29100 ft 465 kts 179°
2026-02-19 09:51 52.70209 10.58887 29586 ft 465 kts 179°
2026-02-19 09:51 52.67072 10.59848 30061 ft 466 kts 179°
2026-02-19 09:51 52.63875 10.60826 30536 ft 466 kts 180°
2026-02-19 09:52 52.60729 10.61786 30994 ft 467 kts 180°
2026-02-19 09:52 52.54327 10.63735 31898 ft 468 kts 180°
2026-02-19 09:52 52.51184 10.64690 32330 ft 468 kts 180°
2026-02-19 09:53 52.47953 10.65671 32776 ft 468 kts 181°
2026-02-19 09:53 52.44742 10.66648 33190 ft 469 kts 181°
2026-02-19 09:53 52.41559 10.67614 33594 ft 469 kts 182°
2026-02-19 09:53 52.38387 10.68575 33975 ft 469 kts 182°
2026-02-19 09:54 52.35181 10.69544 34385 ft 469 kts 182°
2026-02-19 09:54 52.31963 10.70515 34789 ft 468 kts 182°
2026-02-19 09:54 52.28759 10.71478 34891 ft 472 kts 182°
2026-02-19 09:54 52.25525 10.72443 34886 ft 478 kts 182°
2026-02-19 09:55 52.18950 10.74406 34886 ft 485 kts 181°
2026-02-19 09:55 52.12387 10.76373 34884 ft 484 kts 181°
2026-02-19 09:56 52.02488 10.79324 34885 ft 483 kts 181°
2026-02-19 09:57 51.95911 10.81274 34885 ft 484 kts 181°
2026-02-19 09:57 51.89284 10.83231 34885 ft 486 kts 181°
2026-02-19 09:58 51.82677 10.85177 34885 ft 488 kts 181°
2026-02-19 09:58 51.76008 10.87365 34882 ft 499 kts 175°
2026-02-19 09:58 51.72697 10.89261 34883 ft 513 kts 166°
2026-02-19 09:59 51.69562 10.92110 34884 ft 532 kts 152°
2026-02-19 09:59 51.66761 10.96162 34884 ft 548 kts 135°
2026-02-19 09:59 51.64572 11.01199 34889 ft 558 kts 121°
2026-02-19 10:00 51.61104 11.12415 34882 ft 561 kts 115°
2026-02-19 10:00 51.56260 11.29390 34884 ft 558 kts 115°
2026-02-19 10:01 51.53042 11.40688 34884 ft 559 kts 114°
2026-02-19 10:01 51.49801 11.52040 34884 ft 559 kts 114°
2026-02-19 10:02 51.46570 11.63314 34885 ft 559 kts 115°
2026-02-19 10:02 51.43320 11.74649 34885 ft 559 kts 115°
2026-02-19 10:03 51.40091 11.85861 34885 ft 559 kts 115°
2026-02-19 10:03 51.36813 11.97168 34885 ft 559 kts 115°
2026-02-19 10:04 51.31897 12.14011 34885 ft 559 kts 115°
2026-02-19 10:05 51.28607 12.25214 34885 ft 559 kts 115°
2026-02-19 10:05 51.25308 12.36391 34913 ft 559 kts 115°
2026-02-19 10:06 51.21991 12.47578 34967 ft 559 kts 115°
2026-02-19 10:06 51.18657 12.58765 35000 ft 560 kts 115°
2026-02-19 10:07 51.15306 12.69974 34999 ft 560 kts 116°
2026-02-19 10:07 51.11991 12.81050 34999 ft 559 kts 116°
2026-02-19 10:08 51.08620 12.92234 35000 ft 560 kts 116°
2026-02-19 10:08 51.03559 13.08907 34951 ft 559 kts 115°
2026-02-19 10:09 51.00204 13.19886 34898 ft 553 kts 113°
2026-02-19 10:09 50.97160 13.30999 34884 ft 547 kts 105°
2026-02-19 10:10 50.94807 13.42364 34886 ft 545 kts 102°
2026-02-19 10:10 50.92558 13.53845 34885 ft 543 kts 101°
2026-02-19 10:11 50.90387 13.65210 34885 ft 541 kts 101°
2026-02-19 10:11 50.88245 13.76574 34885 ft 540 kts 101°
2026-02-19 10:12 50.84529 13.93374 34885 ft 548 kts 114°
2026-02-19 10:12 50.82493 13.98531 34882 ft 553 kts 126°
2026-02-19 10:13 50.79866 14.02885 34885 ft 554 kts 142°
2026-02-19 10:13 50.73533 14.09680 34884 ft 552 kts 150°
2026-02-19 10:14 50.67048 14.16058 34885 ft 551 kts 151°
2026-02-19 10:14 50.57280 14.25489 34884 ft 551 kts 151°
2026-02-19 10:15 50.50732 14.31751 34884 ft 551 kts 151°
2026-02-19 10:15 50.44225 14.37943 34885 ft 551 kts 151°
2026-02-19 10:16 50.34373 14.47263 34885 ft 551 kts 151°
2026-02-19 10:17 50.27856 14.53400 34885 ft 551 kts 151°
2026-02-19 10:17 50.21283 14.59569 34885 ft 551 kts 151°
2026-02-19 10:18 50.14735 14.65694 34884 ft 551 kts 152°
2026-02-19 10:18 50.08186 14.71823 34885 ft 551 kts 152°
2026-02-19 10:19 50.01676 14.77889 34885 ft 551 kts 152°
2026-02-19 10:19 49.95079 14.84007 34885 ft 551 kts 152°
2026-02-19 10:20 49.88559 14.90032 34869 ft 551 kts 152°
2026-02-19 10:20 49.78672 14.99126 34787 ft 555 kts 152°
2026-02-19 10:21 49.68949 15.08784 34750 ft 559 kts 142°
2026-02-19 10:22 49.62875 15.16175 34750 ft 561 kts 141°
2026-02-19 10:22 49.56797 15.23670 34749 ft 560 kts 141°
2026-02-19 10:23 49.50751 15.31125 34750 ft 560 kts 141°
2026-02-19 10:23 49.44709 15.38562 34752 ft 560 kts 141°
2026-02-19 10:24 49.38634 15.46022 34777 ft 560 kts 141°
2026-02-19 10:24 49.29545 15.57140 34815 ft 560 kts 141°
2026-02-19 10:25 49.23481 15.64530 34831 ft 560 kts 141°
2026-02-19 10:25 49.17409 15.71927 34830 ft 559 kts 142°
2026-02-19 10:26 49.11331 15.79307 34831 ft 559 kts 142°
2026-02-19 10:26 49.05259 15.86646 34831 ft 561 kts 141°
2026-02-19 10:27 48.99141 15.94011 34831 ft 562 kts 140°
2026-02-19 10:27 48.93006 16.01369 34831 ft 562 kts 139°
2026-02-19 10:28 48.83866 16.12289 34831 ft 561 kts 139°
2026-02-19 10:29 48.77743 16.19573 34831 ft 562 kts 139°
2026-02-19 10:29 48.71297 16.26310 34832 ft 564 kts 146°
2026-02-19 10:30 48.64711 16.32694 34831 ft 564 kts 146°
2026-02-19 10:30 48.58182 16.39057 34831 ft 564 kts 145°
2026-02-19 10:31 48.51596 16.45484 34831 ft 564 kts 145°
2026-02-19 10:31 48.45042 16.51871 34831 ft 564 kts 145°
2026-02-19 10:32 48.38478 16.58254 34831 ft 564 kts 145°
2026-02-19 10:32 48.28643 16.67794 34831 ft 564 kts 146°
2026-02-19 10:33 48.22066 16.74170 34831 ft 564 kts 146°
2026-02-19 10:33 48.15517 16.80488 34831 ft 564 kts 146°
2026-02-19 10:34 48.08978 16.86770 34830 ft 556 kts 146°
2026-02-19 10:34 48.02555 16.92919 34830 ft 546 kts 146°
2026-02-19 10:35 47.96212 16.98972 34831 ft 538 kts 146°
2026-02-19 10:35 47.90008 17.04874 34831 ft 531 kts 146°
2026-02-19 10:36 47.81353 17.14890 34832 ft 527 kts 131°
2026-02-19 10:37 47.76301 17.22763 34830 ft 527 kts 129°
2026-02-19 10:37 47.71337 17.30798 34831 ft 527 kts 129°
2026-02-19 10:38 47.66414 17.38794 34830 ft 526 kts 128°
2026-02-19 10:38 47.61526 17.46725 34830 ft 525 kts 129°
2026-02-19 10:39 47.56587 17.54726 34831 ft 527 kts 128°
2026-02-19 10:39 47.51651 17.62704 34831 ft 527 kts 128°
2026-02-19 10:40 47.46733 17.70644 34831 ft 527 kts 129°
2026-02-19 10:40 47.39299 17.82609 34830 ft 527 kts 129°
2026-02-19 10:41 47.34360 17.90520 34830 ft 527 kts 129°
2026-02-19 10:41 47.29408 17.98426 34830 ft 527 kts 129°
2026-02-19 10:42 47.24462 18.06295 34830 ft 526 kts 129°
2026-02-19 10:42 47.19486 18.14188 34831 ft 526 kts 129°
2026-02-19 10:43 47.14531 18.22026 34831 ft 526 kts 129°
2026-02-19 10:43 47.09571 18.29848 34831 ft 527 kts 129°
2026-02-19 10:44 47.02092 18.41598 34831 ft 526 kts 129°
2026-02-19 10:45 46.97101 18.49410 34831 ft 527 kts 128°
2026-02-19 10:45 46.92120 18.57185 34831 ft 526 kts 128°
2026-02-19 10:46 46.87098 18.64999 34830 ft 526 kts 128°
2026-02-19 10:46 46.82099 18.72774 34831 ft 527 kts 128°
2026-02-19 10:47 46.77097 18.80528 34831 ft 527 kts 128°
2026-02-19 10:47 46.72099 18.88244 34831 ft 527 kts 128°
2026-02-19 10:48 46.67070 18.95984 34831 ft 527 kts 128°
2026-02-19 10:48 46.59591 19.07445 34830 ft 515 kts 130°
2026-02-19 10:49 46.54712 19.14895 34830 ft 504 kts 130°
2026-02-19 10:49 46.49945 19.22155 34830 ft 496 kts 131°
2026-02-19 10:50 46.45200 19.29367 34832 ft 497 kts 131°
2026-02-19 10:50 46.40432 19.36592 34831 ft 499 kts 131°
2026-02-19 10:51 46.35625 19.43856 34830 ft 498 kts 131°
2026-02-19 10:51 46.30850 19.51051 34831 ft 498 kts 131°
2026-02-19 10:52 46.23660 19.61848 34831 ft 498 kts 131°
2026-02-19 10:53 46.18646 19.68709 34830 ft 500 kts 140°
2026-02-19 10:53 46.13052 19.74680 34878 ft 501 kts 143°
2026-02-19 10:54 46.07358 19.80441 34929 ft 501 kts 144°
2026-02-19 10:54 46.01659 19.86118 35001 ft 502 kts 144°
2026-02-19 10:55 45.95921 19.91781 35041 ft 502 kts 144°
2026-02-19 10:55 45.90194 19.97403 35047 ft 502 kts 144°
2026-02-19 10:56 45.84453 20.03011 35047 ft 501 kts 144°
2026-02-19 10:56 45.75825 20.11403 35047 ft 502 kts 144°
2026-02-19 10:57 45.70075 20.16975 35047 ft 502 kts 144°
2026-02-19 10:57 45.64296 20.22559 35047 ft 501 kts 144°
2026-02-19 10:58 45.58544 20.28104 35047 ft 501 kts 144°
2026-02-19 10:58 45.52756 20.33668 35047 ft 501 kts 144°
2026-02-19 10:59 45.47001 20.39187 35047 ft 502 kts 144°
2026-02-19 10:59 45.41250 20.44688 35047 ft 502 kts 144°
2026-02-19 11:00 45.32572 20.52963 35047 ft 501 kts 144°
2026-02-19 11:01 45.26809 20.58441 35047 ft 502 kts 144°
2026-02-19 11:01 45.21039 20.63912 35047 ft 502 kts 144°
2026-02-19 11:02 45.15229 20.69413 35047 ft 502 kts 145°
2026-02-19 11:02 45.09470 20.74855 35019 ft 502 kts 146°
2026-02-19 11:03 45.03668 20.80319 35020 ft 500 kts 145°
2026-02-19 11:03 44.97922 20.85715 35020 ft 499 kts 145°
2026-02-19 11:04 44.92143 20.91128 35020 ft 497 kts 146°
2026-02-19 11:04 44.83566 20.99140 35019 ft 490 kts 147°
2026-02-19 11:05 44.77950 21.04368 35020 ft 483 kts 147°
2026-02-19 11:05 44.72410 21.09511 35021 ft 479 kts 147°
2026-02-19 11:06 44.66870 21.14644 35019 ft 474 kts 148°
2026-02-19 11:06 44.61400 21.19702 35020 ft 473 kts 148°
2026-02-19 11:07 44.55927 21.24750 35022 ft 476 kts 148°
2026-02-19 11:07 44.50384 21.29849 35020 ft 477 kts 148°
2026-02-19 11:08 44.42091 21.37457 35019 ft 475 kts 148°
2026-02-19 11:09 44.36579 21.42496 35020 ft 475 kts 148°
2026-02-19 11:09 44.31112 21.47578 35019 ft 477 kts 144°
2026-02-19 11:10 44.25890 21.53289 35020 ft 477 kts 142°
2026-02-19 11:10 44.20717 21.59004 35021 ft 478 kts 142°
2026-02-19 11:11 44.15512 21.64710 35020 ft 476 kts 142°
2026-02-19 11:11 44.10316 21.70380 35020 ft 477 kts 143°
2026-02-19 11:12 44.05095 21.76053 35020 ft 477 kts 143°
2026-02-19 11:12 43.97274 21.84518 35019 ft 476 kts 143°
2026-02-19 11:13 43.92068 21.90129 35020 ft 475 kts 143°
2026-02-19 11:13 43.86856 21.95731 35020 ft 476 kts 143°
2026-02-19 11:14 43.81634 22.01337 35019 ft 476 kts 143°
2026-02-19 11:14 43.76411 22.06927 35020 ft 478 kts 143°
2026-02-19 11:15 43.71174 22.12516 35019 ft 476 kts 143°
2026-02-19 11:15 43.65945 22.18087 35019 ft 476 kts 143°
2026-02-19 11:16 43.58076 22.26449 35019 ft 477 kts 143°
2026-02-19 11:17 43.52840 22.31998 35020 ft 476 kts 143°
2026-02-19 11:17 43.47531 22.37417 35018 ft 476 kts 148°
2026-02-19 11:18 43.41960 22.42178 35021 ft 476 kts 149°
2026-02-19 11:18 43.36304 22.46948 35020 ft 477 kts 149°
2026-02-19 11:19 43.30693 22.51684 35020 ft 476 kts 149°
2026-02-19 11:19 43.25077 22.56422 35020 ft 476 kts 149°
2026-02-19 11:20 43.19475 22.61140 35019 ft 474 kts 149°
2026-02-19 11:20 43.11046 22.68224 35020 ft 474 kts 150°
2026-02-19 11:21 43.05434 22.72929 35022 ft 477 kts 150°
2026-02-19 11:21 42.99870 22.77744 35019 ft 476 kts 147°
2026-02-19 11:22 42.94745 22.83435 35021 ft 476 kts 140°
2026-02-19 11:22 42.89835 22.89460 35019 ft 477 kts 139°
2026-02-19 11:23 42.84929 22.95588 35020 ft 479 kts 140°
2026-02-19 11:23 42.80062 23.01703 35021 ft 478 kts 140°
2026-02-19 11:24 42.72772 23.10876 35046 ft 477 kts 140°
2026-02-19 11:25 42.67916 23.16985 35083 ft 477 kts 140°
2026-02-19 11:25 42.63072 23.23073 35116 ft 475 kts 140°
2026-02-19 11:26 42.58239 23.29134 35151 ft 475 kts 140°
2026-02-19 11:26 42.53412 23.35177 35161 ft 475 kts 140°
2026-02-19 11:27 42.48590 23.41200 35167 ft 475 kts 140°
2026-02-19 11:27 42.43706 23.47290 35176 ft 477 kts 140°
2026-02-19 11:28 42.38853 23.53324 35182 ft 477 kts 140°
2026-02-19 11:28 42.31559 23.62371 35182 ft 476 kts 140°
2026-02-19 11:29 42.26684 23.68402 35182 ft 477 kts 141°
2026-02-19 11:29 42.21835 23.74393 35182 ft 475 kts 140°
2026-02-19 11:30 42.16952 23.80407 35182 ft 475 kts 141°
2026-02-19 11:30 42.12085 23.86387 35182 ft 475 kts 141°
2026-02-19 11:31 42.07214 23.92362 35182 ft 476 kts 140°
2026-02-19 11:31 42.02310 23.98360 35182 ft 476 kts 141°
2026-02-19 11:32 41.94971 24.07248 35177 ft 475 kts 141°
2026-02-19 11:33 41.90076 24.13125 34975 ft 472 kts 141°
2026-02-19 11:33 41.87643 24.16042 34091 ft 473 kts 141°
2026-02-19 11:33 41.85193 24.18978 33269 ft 471 kts 141°
2026-02-19 11:33 41.82777 24.21871 32448 ft 469 kts 141°
2026-02-19 11:34 41.80370 24.24746 31557 ft 467 kts 141°
2026-02-19 11:34 41.77976 24.27606 30671 ft 465 kts 141°
2026-02-19 11:34 41.75576 24.30472 29687 ft 464 kts 141°
2026-02-19 11:34 41.73178 24.33330 28653 ft 462 kts 141°
2026-02-19 11:35 41.70808 24.36151 27625 ft 460 kts 141°
2026-02-19 11:35 41.68425 24.38986 26437 ft 459 kts 141°
2026-02-19 11:35 41.66053 24.41805 25294 ft 456 kts 140°
2026-02-19 11:35 41.63749 24.44540 24357 ft 448 kts 140°
2026-02-19 11:36 41.61430 24.47290 23390 ft 440 kts 140°
2026-02-19 11:36 41.56932 24.52528 21481 ft 425 kts 140°
2026-02-19 11:36 41.54787 24.55182 20505 ft 420 kts 131°
2026-02-19 11:37 41.53278 24.58406 19560 ft 416 kts 114°
2026-02-19 11:37 41.52584 24.62122 18635 ft 412 kts 96°
2026-02-19 11:37 41.52787 24.65897 17690 ft 410 kts 78°
2026-02-19 11:37 41.53819 24.69374 16805 ft 406 kts 64°
2026-02-19 11:38 41.55233 24.72617 15868 ft 401 kts 60°
2026-02-19 11:38 41.56665 24.75738 14974 ft 394 kts 60°
2026-02-19 11:38 41.58071 24.78805 14078 ft 388 kts 60°
2026-02-19 11:38 41.59452 24.81844 13167 ft 382 kts 60°
2026-02-19 11:39 41.60808 24.84856 12262 ft 377 kts 60°
2026-02-19 11:39 41.62143 24.87850 11343 ft 372 kts 60°
2026-02-19 11:39 41.63428 24.90764 10437 ft 367 kts 60°
2026-02-19 11:39 41.64708 24.93691 9519 ft 363 kts 60°
2026-02-19 11:40 41.65947 24.96551 9157 ft 352 kts 60°
2026-02-19 11:40 41.68431 25.02321 9178 ft 360 kts 60°
2026-02-19 11:40 41.69680 25.05234 9182 ft 360 kts 60°
2026-02-19 11:41 41.70917 25.08123 9182 ft 360 kts 60°
2026-02-19 11:41 41.72422 25.10754 9172 ft 354 kts 43°
2026-02-19 11:41 41.74303 25.12749 9019 ft 333 kts 36°
2026-02-19 11:41 41.76135 25.14475 8887 ft 313 kts 35°
2026-02-19 11:42 41.77856 25.16076 8801 ft 295 kts 35°
2026-02-19 11:42 41.79491 25.17597 8713 ft 279 kts 35°
2026-02-19 11:42 41.81155 25.18811 8611 ft 267 kts 14°
2026-02-19 11:42 41.82943 25.18710 8517 ft 259 kts 341°
2026-02-19 11:43 41.84380 25.17327 8315 ft 258 kts 313°
2026-02-19 11:43 41.85452 25.15417 8042 ft 257 kts 306°
2026-02-19 11:43 41.86514 25.13509 7710 ft 256 kts 320°
2026-02-19 11:43 41.88087 25.12505 7321 ft 249 kts 355°
2026-02-19 11:44 41.89743 25.12760 6967 ft 238 kts 16°
2026-02-19 11:44 41.92773 25.11964 6087 ft 237 kts 317°
2026-02-19 11:44 41.93816 25.10307 5519 ft 234 kts 306°
2026-02-19 11:45 41.94635 25.08457 4915 ft 228 kts 300°
2026-02-19 11:45 41.95364 25.06628 4446 ft 214 kts 299°
2026-02-19 11:45 41.96030 25.04944 4168 ft 197 kts 299°
2026-02-19 11:45 41.96644 25.03389 3926 ft 181 kts 299°
2026-02-19 11:46 41.97256 25.02019 3673 ft 162 kts 304°
2026-02-19 11:46 41.97863 25.00794 3502 ft 155 kts 305°
2026-02-19 11:46 41.98453 24.99617 3230 ft 148 kts 305°
2026-02-19 11:46 41.99024 24.98512 3026 ft 138 kts 307°
2026-02-19 11:47 41.99607 24.97453 2919 ft 143 kts 309°
2026-02-19 11:47 42.00221 24.96410 2765 ft 142 kts 309°
2026-02-19 11:47 42.00837 24.95358 2535 ft 141 kts 308°
2026-02-19 11:47 42.01427 24.94305 2255 ft 141 kts 308°
2026-02-19 11:48 42.02020 24.93274 1932 ft 140 kts 309°
2026-02-19 11:48 42.03221 24.91296 1393 ft 125 kts 309°
2026-02-19 11:48 42.03796 24.90326 1291 ft 136 kts 308°
2026-02-19 11:49 42.04370 24.89291 1199 ft 140 kts 307°
2026-02-19 11:49 42.04965 24.88251 1050 ft 143 kts 308°
2026-02-19 11:49 42.05554 24.87241 828 ft 129 kts 308°
2026-02-19 11:49 42.06116 24.86257 657 ft 130 kts 308°
2026-02-19 11:50 42.06620 24.85372 599 ft 99 kts 308°
2026-02-19 11:50 42.06897 24.84891 592 ft 37 kts 307°
2026-02-19 11:50 42.06995 24.84726 588 ft 16 kts 314°
2026-02-19 11:50 42.07096 24.84665 587 ft 18 kts 353°
2026-02-19 11:51 42.07256 24.84637 585 ft 21 kts 353°
2026-02-19 11:51 42.07368 24.84594 584 ft 13 kts 326°
2026-02-19 11:51 42.07405 24.84551 583 ft 0 kts 310°